Location: Ostrava
(49.8330°N, 18.2830°E)
Time: 23:53:34
(UTC+02:00)

Cosmos 1400 Rocket - Visible Passes

Search period start: 29 June 2016 00:00
Search period end: 09 July 2016 00:00
Orbit: 524 x 571 km, 81.2° (Epoch: 28 June)

Date Brightness Start Highest point End Pass type
(mag) Time Alt. Az. Time Alt. Az. Time Alt. Az.
29 Jun 5.3 02:39:18 10° SE 02:41:44 16° E 02:44:11 10° NE visible
30 Jun 5.2 02:34:01 10° SE 02:36:38 17° E 02:39:16 10° NE visible
01 Jul 5.1 02:28:46 10° SE 02:31:32 19° E 02:34:20 10° NE visible
02 Jul 4.9 02:23:31 10° SE 02:26:26 20° E 02:29:23 10° NE visible
03 Jul 4.8 02:18:18 10° SE 02:21:21 22° E 02:24:26 10° NE visible
03 Jul 3.7 03:54:02 10° SW 03:57:40 35° WNW 04:01:23 10° N visible
04 Jul 4.7 02:13:16 11° SE 02:16:15 24° E 02:19:28 10° NE visible
04 Jul 3.8 03:49:03 10° SW 03:52:38 33° WNW 03:56:17 10° N visible
05 Jul 4.5 02:08:26 13° SE 02:11:10 25° E 02:14:29 10° NE visible
05 Jul 3.9 03:44:06 10° SW 03:47:36 31° WNW 03:51:12 10° N visible
06 Jul 4.4 02:03:34 15° SE 02:06:05 28° E 02:09:30 10° NNE visible
06 Jul 4.0 03:39:15 11° SW 03:42:34 29° WNW 03:46:06 10° N visible
07 Jul 4.2 01:58:42 17° SE 02:01:00 30° E 02:04:31 10° NNE visible
07 Jul 4.2 03:34:23 11° SW 03:37:31 27° WNW 03:41:00 10° N visible
08 Jul 4.1 01:53:50 20° SE 01:55:54 32° E 01:59:31 10° NNE visible
08 Jul 4.3 03:29:30 12° WSW 03:32:29 25° WNW 03:35:52 10° N visible
